N4183N X51-KTMB

Flight info

Callsign N4183N
Flight time N/A
Altitude 3000
Route LADYN
Aircraft C182/L-VGDW/C

Departure

Time N/A
Airport X51

Arrival

Time 2026-05-08 22:25
Airport Miami Executive Airport (KTMB)
Time Latitude Longitude Altitude Speed Heading
2026-05-08 22:24 25.50158 -80.54611 15 ft 0 kts 283°
2026-05-08 22:25 25.50159 -80.54616 15 ft 5 kts 281°
2026-05-08 22:25 25.50204 -80.54666 14 ft 11 kts 290°
2026-05-08 22:25 25.50210 -80.54762 14 ft 15 kts 270°
2026-05-08 22:26 25.50208 -80.54889 15 ft 19 kts 270°
2026-05-08 22:26 25.50208 -80.55050 15 ft 22 kts 271°
2026-05-08 22:26 25.50206 -80.55225 15 ft 23 kts 270°
2026-05-08 22:26 25.50205 -80.55415 15 ft 22 kts 267°
2026-05-08 22:27 25.50234 -80.55503 15 ft 1 kts 331°
2026-05-08 22:27 25.50244 -80.55503 15 ft 8 kts
2026-05-08 22:27 25.50274 -80.55394 14 ft 36 kts 91°
2026-05-08 22:27 25.50260 -80.54965 86 ft 69 kts 95°
2026-05-08 22:28 25.50226 -80.54475 371 ft 58 kts 98°
2026-05-08 22:28 25.50191 -80.54010 616 ft 68 kts 101°
2026-05-08 22:28 25.50343 -80.53473 951 ft 76 kts 59°
2026-05-08 22:28 25.50771 -80.53136 1283 ft 79 kts 29°
2026-05-08 22:29 25.51337 -80.53070 1581 ft 84 kts 358°
2026-05-08 22:29 25.51849 -80.53382 1870 ft 88 kts 314°
2026-05-08 22:29 25.52155 -80.53955 2147 ft 88 kts 285°
2026-05-08 22:29 25.52492 -80.54560 2392 ft 94 kts 296°
2026-05-08 22:30 25.52840 -80.55171 2685 ft 90 kts 296°
2026-05-08 22:30 25.53143 -80.55770 2993 ft 89 kts 292°
2026-05-08 22:30 25.53460 -80.56458 3063 ft 112 kts 294°
2026-05-08 22:30 25.53806 -80.57255 3120 ft 118 kts 287°
2026-05-08 22:31 25.54047 -80.58148 3124 ft 122 kts 277°
2026-05-08 22:31 25.54242 -80.59088 3119 ft 127 kts 280°
2026-05-08 22:31 25.54469 -80.60044 3117 ft 129 kts 281°
2026-05-08 22:31 25.54687 -80.61005 3113 ft 131 kts 281°
2026-05-08 22:32 25.54903 -80.61983 3115 ft 131 kts 281°
2026-05-08 22:32 25.55242 -80.62898 3082 ft 131 kts 313°
2026-05-08 22:32 25.56107 -80.63175 3052 ft 133 kts
2026-05-08 22:32 25.56902 -80.62748 3031 ft 128 kts 51°
2026-05-08 22:33 25.57419 -80.61960 3040 ft 125 kts 59°
2026-05-08 22:33 25.57919 -80.61159 3017 ft 127 kts 58°
2026-05-08 22:33 25.58436 -80.60331 2903 ft 134 kts 60°
2026-05-08 22:33 25.58963 -80.59481 2786 ft 136 kts 61°
2026-05-08 22:34 25.59502 -80.58610 2668 ft 138 kts 61°
2026-05-08 22:34 25.60042 -80.57736 2553 ft 137 kts 58°
2026-05-08 22:34 25.60567 -80.56891 2517 ft 130 kts 61°
2026-05-08 22:34 25.61084 -80.56061 2513 ft 130 kts 63°
2026-05-08 22:35 25.61592 -80.55248 2517 ft 127 kts 62°
2026-05-08 22:35 25.62093 -80.54447 2509 ft 127 kts 62°
2026-05-08 22:35 25.62599 -80.53639 2510 ft 127 kts 58°
2026-05-08 22:35 25.63092 -80.52844 2503 ft 122 kts 58°
2026-05-08 22:36 25.63571 -80.52073 2505 ft 121 kts 58°
2026-05-08 22:36 25.64044 -80.51317 2500 ft 120 kts 57°
2026-05-08 22:36 25.64351 -80.50488 2484 ft 118 kts 96°
2026-05-08 22:36 25.64164 -80.49629 2502 ft 114 kts 92°
2026-05-08 22:37 25.64151 -80.48730 2503 ft 118 kts 91°
2026-05-08 22:37 25.64159 -80.47833 2504 ft 117 kts 90°
2026-05-08 22:37 25.64182 -80.46925 2506 ft 117 kts 89°
2026-05-08 22:37 25.64208 -80.46016 2506 ft 119 kts 88°
2026-05-08 22:38 25.64246 -80.45100 2509 ft 119 kts 88°
2026-05-08 22:38 25.64285 -80.44196 2504 ft 118 kts 88°
2026-05-08 22:38 25.64325 -80.43285 2510 ft 118 kts 88°
2026-05-08 22:38 25.64381 -80.42375 2509 ft 118 kts 85°
2026-05-08 22:39 25.64453 -80.41465 2509 ft 119 kts 86°
2026-05-08 22:39 25.64526 -80.40544 2509 ft 120 kts 86°
2026-05-08 22:39 25.64599 -80.39631 2511 ft 120 kts 86°
2026-05-08 22:39 25.64672 -80.38702 2510 ft 121 kts 85°
2026-05-08 22:40 25.64745 -80.37771 2516 ft 121 kts 86°
2026-05-08 22:40 25.64817 -80.36846 2511 ft 120 kts 86°
2026-05-08 22:40 25.64889 -80.35937 2510 ft 119 kts 85°
2026-05-08 22:40 25.64963 -80.35019 2502 ft 118 kts 85°
2026-05-08 22:41 25.65035 -80.34111 2500 ft 118 kts 85°
2026-05-08 22:41 25.65111 -80.33203 2512 ft 118 kts 86°
2026-05-08 22:41 25.65223 -80.32300 2490 ft 119 kts 70°
2026-05-08 22:41 25.65887 -80.31842 2490 ft 124 kts
2026-05-08 22:42 25.66543 -80.32394 2491 ft 126 kts 289°
2026-05-08 22:42 25.66389 -80.33313 2504 ft 123 kts 243°
2026-05-08 22:42 25.66045 -80.34188 2506 ft 124 kts 246°
2026-05-08 22:42 25.65711 -80.35067 2509 ft 123 kts 246°
2026-05-08 22:43 25.65385 -80.35933 2509 ft 124 kts 246°
2026-05-08 22:43 25.65051 -80.36813 2514 ft 124 kts 245°
2026-05-08 22:43 25.64712 -80.37706 2510 ft 126 kts 245°
2026-05-08 22:43 25.64369 -80.38601 2514 ft 126 kts 245°
2026-05-08 22:44 25.64043 -80.39504 2502 ft 127 kts 253°
2026-05-08 22:44 25.63945 -80.40483 2413 ft 131 kts 266°
2026-05-08 22:44 25.63912 -80.41509 2328 ft 131 kts 267°
2026-05-08 22:44 25.63919 -80.42513 2217 ft 133 kts 272°
2026-05-08 22:45 25.64018 -80.43533 2174 ft 133 kts 272°
2026-05-08 22:45 25.64067 -80.44568 2092 ft 134 kts 269°
2026-05-08 22:45 25.64095 -80.45565 2094 ft 125 kts 267°
2026-05-08 22:45 25.64092 -80.46523 2080 ft 123 kts 266°
2026-05-08 22:46 25.64076 -80.47434 2118 ft 117 kts 265°
2026-05-08 22:46 25.64062 -80.48356 2080 ft 123 kts 266°
2026-05-08 22:46 25.64045 -80.49301 2106 ft 124 kts 264°
2026-05-08 22:46 25.64012 -80.50267 2088 ft 127 kts 265°
2026-05-08 22:47 25.63968 -80.51244 2051 ft 126 kts 264°
2026-05-08 22:47 25.63942 -80.52209 2063 ft 123 kts 265°
2026-05-08 22:47 25.64041 -80.53128 2066 ft 122 kts 287°
2026-05-08 22:47 25.64474 -80.53935 2112 ft 120 kts 310°
2026-05-08 22:48 25.65018 -80.54624 2182 ft 119 kts 314°
2026-05-08 22:48 25.65605 -80.55322 2065 ft 128 kts 314°
2026-05-08 22:48 25.66205 -80.56038 2031 ft 126 kts 313°
2026-05-08 22:48 25.66808 -80.56746 1955 ft 125 kts 308°
2026-05-08 22:49 25.67125 -80.57627 1920 ft 120 kts 271°
2026-05-08 22:49 25.66244 -80.59007 1811 ft 118 kts 199°
2026-05-08 22:49 25.65451 -80.59080 1747 ft 115 kts 165°
2026-05-08 22:50 25.64778 -80.58615 1654 ft 115 kts 131°
2026-05-08 22:50 25.64254 -80.57957 1581 ft 111 kts 132°
2026-05-08 22:50 25.63886 -80.57268 1565 ft 101 kts 105°
2026-05-08 22:50 25.63831 -80.56501 1587 ft 100 kts 96°
2026-05-08 22:51 25.63791 -80.55721 1595 ft 103 kts 98°
2026-05-08 22:51 25.63833 -80.54905 1562 ft 105 kts 92°
2026-05-08 22:51 25.63904 -80.54124 1541 ft 99 kts 91°
2026-05-08 22:51 25.63988 -80.53396 1610 ft 93 kts 89°
2026-05-08 22:52 25.63985 -80.52716 1527 ft 82 kts 94°
2026-05-08 22:52 25.63990 -80.52131 1404 ft 73 kts 95°
2026-05-08 22:52 25.63973 -80.51573 1237 ft 75 kts 94°
2026-05-08 22:52 25.63970 -80.50991 1119 ft 73 kts 87°
2026-05-08 22:53 25.64015 -80.50456 1053 ft 68 kts 85°
2026-05-08 22:53 25.64045 -80.49930 908 ft 68 kts 90°
2026-05-08 22:53 25.64102 -80.49427 891 ft 64 kts 86°
2026-05-08 22:53 25.64112 -80.48916 881 ft 71 kts 90°
2026-05-08 22:54 25.64182 -80.48370 818 ft 72 kts 93°
2026-05-08 22:54 25.64212 -80.47812 710 ft 76 kts 96°
2026-05-08 22:54 25.64173 -80.47221 612 ft 78 kts 99°
2026-05-08 22:54 25.64159 -80.46627 483 ft 76 kts 89°
2026-05-08 22:55 25.64224 -80.46066 394 ft 71 kts 90°
2026-05-08 22:55 25.64248 -80.45534 314 ft 67 kts 95°
2026-05-08 22:55 25.64254 -80.45012 217 ft 69 kts 95°
2026-05-08 22:55 25.64279 -80.44501 128 ft 63 kts 89°
2026-05-08 22:56 25.64291 -80.44037 38 ft 56 kts 82°
2026-05-08 22:56 25.64315 -80.43643 14 ft 44 kts 88°
2026-05-08 22:56 25.64321 -80.43352 11 ft 33 kts 88°
2026-05-08 22:56 25.64332 -80.43105 15 ft 28 kts 88°
2026-05-08 22:57 25.64420 -80.42998 15 ft 4 kts 358°
2026-05-08 22:57 25.64422 -80.42998 15 ft 3 kts 349°
2026-05-08 22:57 25.64484 -80.42997 15 ft 15 kts 81°
2026-05-08 22:57 25.64495 -80.42876 18 ft 16 kts 43°
2026-05-08 22:58 25.64560 -80.42902 18 ft 9 kts
2026-05-08 22:58 25.64546 -80.42916 18 ft 1 kts 183°